Wetterdaten: Samstag, 27.12.2014
Datum Zeit Temperatur Luftfeuchte Luftdruck Regen Wind Richtung Richtung Taupunkt Windchill Windben
27.12.2014 00:00 -5,3 C 92 % 1021,4 hPa 0,0 l/m 0,0 km/h (0 Bft) W-SW 247 -6,4 C -5,9 C 1,6 km/h (1 Bft)
27.12.2014 00:05 -5,2 C 92 % 1021,4 hPa 0,0 l/m 0,3 km/h (0 Bft) S-SO 157 -6,3 C -5,9 C 0,0 km/h (0 Bft)
27.12.2014 00:10 -4,8 C 92 % 1021,4 hPa 0,0 l/m 0,6 km/h (0 Bft) SO 135 -5,9 C -5,5 C 3,4 km/h (1 Bft)
27.12.2014 00:15 -4,7 C 92 % 1021,4 hPa 0,0 l/m 0,5 km/h (0 Bft) SO 135 -5,8 C -5,2 C 2,6 km/h (1 Bft)
27.12.2014 00:20 -4,6 C 92 % 1021,1 hPa 0,0 l/m 0,5 km/h (0 Bft) SO 135 -5,7 C -5,0 C 2,7 km/h (1 Bft)
27.12.2014 00:25 -4,7 C 92 % 1021,1 hPa 0,0 l/m 0,3 km/h (0 Bft) NW 315 -5,8 C -5,0 C 0,0 km/h (0 Bft)
27.12.2014 00:30 -4,6 C 92 % 1021,1 hPa 0,0 l/m 0,0 km/h (0 Bft) N-NW 337 -5,7 C -4,9 C 0,0 km/h (0 Bft)
27.12.2014 00:35 -4,3 C 92 % 1021,1 hPa 0,0 l/m 0,0 km/h (0 Bft) N 360 -5,4 C -4,8 C 0,0 km/h (0 Bft)
27.12.2014 00:40 -4,0 C 92 % 1020,4 hPa 0,0 l/m 0,3 km/h (0 Bft) S 180 -5,1 C -4,5 C 1,8 km/h (1 Bft)
27.12.2014 00:45 -3,8 C 92 % 1020,4 hPa 0,0 l/m 0,3 km/h (0 Bft) S 180 -4,9 C -4,3 C 0,0 km/h (0 Bft)
27.12.2014 00:50 -3,9 C 92 % 1020,4 hPa 0,0 l/m 0,2 km/h (0 Bft) SO 135 -5,0 C -4,2 C 0,0 km/h (0 Bft)
27.12.2014 00:55 -4,5 C 92 % 1020,4 hPa 0,0 l/m 0,0 km/h (0 Bft) S-SO 157 -5,6 C -4,4 C 0,0 km/h (0 Bft)
27.12.2014 01:00 -4,9 C 92 % 1019,9 hPa 0,0 l/m 0,0 km/h (0 Bft) S-SO 157 -6,0 C -4,9 C 0,0 km/h (0 Bft)
27.12.2014 01:05 -5,6 C 92 % 1019,9 hPa 0,0 l/m 0,0 km/h (0 Bft) S-SO 157 -6,7 C -5,4 C 0,0 km/h (0 Bft)
27.12.2014 01:10 -6,1 C 91 % 1019,9 hPa 0,0 l/m 0,0 km/h (0 Bft) SO 135 -7,3 C -6,1 C 0,0 km/h (0 Bft)
27.12.2014 01:15 -6,2 C 91 % 1019,9 hPa 0,0 l/m 0,0 km/h (0 Bft) SO 135 -7,4 C -6,3 C 0,0 km/h (0 Bft)
27.12.2014 01:20 -6,0 C 91 % 1019,7 hPa 0,0 l/m 0,0 km/h (0 Bft) SO 135 -7,2 C -6,7 C 0,0 km/h (0 Bft)
27.12.2014 01:25 -6,1 C 91 % 1019,7 hPa 0,0 l/m 0,0 km/h (0 Bft) SO 135 -7,3 C -6,8 C 0,0 km/h (0 Bft)
27.12.2014 01:30 -6,7 C 90 % 1019,7 hPa 0,0 l/m 0,0 km/h (0 Bft) S-SO 157 -8,1 C -7,2 C 0,0 km/h (0 Bft)
27.12.2014 01:35 -7,0 C 90 % 1019,7 hPa 0,0 l/m 0,0 km/h (0 Bft) S-SO 157 -8,4 C -7,5 C 0,0 km/h (0 Bft)
27.12.2014 01:40 -6,9 C 90 % 1019,2 hPa 0,0 l/m 0,0 km/h (0 Bft) S-SO 157 -8,3 C -7,6 C 0,0 km/h (0 Bft)
27.12.2014 01:45 -7,0 C 90 % 1019,2 hPa 0,0 l/m 0,0 km/h (0 Bft) S-SO 157 -8,4 C -7,7 C 0,0 km/h (0 Bft)
27.12.2014 01:50 -7,5 C 89 % 1019,2 hPa 0,0 l/m 0,0 km/h (0 Bft) S-SO 157 -9,0 C -8,0 C 0,0 km/h (0 Bft)
27.12.2014 01:53 -7,6 C 89 % 1019,2 hPa 0,0 l/m 0,0 km/h (0 Bft) S-SO 157 -9,1 C -8,2 C 0,0 km/h (0 Bft)
27.12.2014 01:55 -7,8 C 89 % 1018,4 hPa 0,0 l/m 0,0 km/h (0 Bft) S 180 -9,3 C -8,3 C 0,0 km/h (0 Bft)
27.12.2014 02:00 -7,8 C 89 % 1018,4 hPa 0,0 l/m 0,0 km/h (0 Bft) S 180 -9,3 C -8,4 C 0,0 km/h (0 Bft)
27.12.2014 02:05 -8,5 C 89 % 1018,4 hPa 0,0 l/m 0,0 km/h (0 Bft) S 180 -10,0 C -8,8 C 0,0 km/h (0 Bft)
27.12.2014 02:10 -8,5 C 88 % 1018,4 hPa 0,0 l/m 0,0 km/h (0 Bft) S 180 -10,1 C -8,9 C 0,0 km/h (0 Bft)
27.12.2014 02:15 -7,9 C 89 % 1018,4 hPa 0,0 l/m 0,2 km/h (0 Bft) S-SO 157 -9,4 C -8,6 C 1,6 km/h (1 Bft)
27.12.2014 02:20 -7,9 C 88 % 1018,4 hPa 0,0 l/m 0,2 km/h (0 Bft) S-SO 157 -9,5 C -8,5 C 0,0 km/h (0 Bft)
27.12.2014 02:25 -8,3 C 88 % 1018,4 hPa 0,0 l/m 0,2 km/h (0 Bft) S-SW 202 -9,9 C -8,7 C 0,0 km/h (0 Bft)
27.12.2014 02:30 -8,3 C 88 % 1018,4 hPa 0,0 l/m 0,2 km/h (0 Bft) S-SW 202 -9,9 C -8,7 C 0,0 km/h (0 Bft)
27.12.2014 02:35 -8,6 C 88 % 1018,4 hPa 0,0 l/m 0,0 km/h (0 Bft) S-SW 202 -10,2 C -8,9 C 0,0 km/h (0 Bft)
27.12.2014 02:40 -9,0 C 88 % 1018,1 hPa 0,0 l/m 0,0 km/h (0 Bft) S 180 -10,6 C -9,2 C 0,0 km/h (0 Bft)
27.12.2014 02:45 -9,0 C 88 % 1018,1 hPa 0,0 l/m 0,0 km/h (0 Bft) S-SW 202 -10,6 C -9,3 C 0,0 km/h (0 Bft)
27.12.2014 02:50 -9,4 C 87 % 1018,1 hPa 0,0 l/m 0,0 km/h (0 Bft) S-SW 202 -11,2 C -9,7 C 0,0 km/h (0 Bft)
27.12.2014 02:55 -9,2 C 87 % 1018,1 hPa 0,0 l/m 0,0 km/h (0 Bft) S 180 -11,0 C -9,9 C 0,0 km/h (0 Bft)
27.12.2014 03:00 -9,0 C 87 % 1017,9 hPa 0,0 l/m 0,0 km/h (0 Bft) S 180 -10,8 C -9,9 C 0,0 km/h (0 Bft)
27.12.2014 03:05 -9,3 C 87 % 1017,9 hPa 0,0 l/m 0,2 km/h (0 Bft) O-SO 112 -11,1 C -9,9 C 2,1 km/h (1 Bft)
27.12.2014 03:10 -9,1 C 87 % 1017,9 hPa 0,0 l/m 0,2 km/h (0 Bft) NO 45 -10,9 C -9,4 C 0,0 km/h (0 Bft)
27.12.2014 03:15 -8,9 C 87 % 1017,9 hPa 0,0 l/m 0,3 km/h (0 Bft) SO 135 -10,7 C -9,2 C 0,0 km/h (0 Bft)
27.12.2014 03:20 -8,4 C 88 % 1017,4 hPa 0,0 l/m 0,3 km/h (0 Bft) N-NO 22 -10,0 C -8,8 C 1,8 km/h (1 Bft)
27.12.2014 03:25 -8,5 C 88 % 1017,4 hPa 0,0 l/m 0,2 km/h (0 Bft) N-NW 337 -10,1 C -8,5 C 0,0 km/h (0 Bft)
27.12.2014 03:30 -8,2 C 88 % 1017,4 hPa 0,0 l/m 0,3 km/h (0 Bft) W 270 -9,8 C -8,1 C 3,7 km/h (1 Bft)
27.12.2014 03:35 -7,5 C 88 % 1017,4 hPa 0,0 l/m 0,8 km/h (0 Bft) W-SW 247 -9,1 C -7,8 C 3,5 km/h (1 Bft)
27.12.2014 03:40 -7,5 C 88 % 1016,8 hPa 0,0 l/m 1,3 km/h (1 Bft) NO 45 -9,1 C -7,3 C 6,0 km/h (2 Bft)
27.12.2014 03:45 -7,5 C 89 % 1016,8 hPa 0,0 l/m 1,0 km/h (0 Bft) O-NO 67 -9,0 C -7,1 C 0,0 km/h (0 Bft)
27.12.2014 03:50 -7,3 C 89 % 1016,8 hPa 0,0 l/m 0,5 km/h (0 Bft) W-SW 247 -8,8 C -7,0 C 0,0 km/h (0 Bft)
27.12.2014 03:55 -7,3 C 89 % 1016,8 hPa 0,0 l/m 0,5 km/h (0 Bft) N-NW 337 -8,8 C -6,9 C 2,4 km/h (1 Bft)
27.12.2014 04:00 -6,6 C 89 % 1016,4 hPa 0,0 l/m 1,0 km/h (0 Bft) O-NO 67 -8,1 C -6,8 C 2,7 km/h (1 Bft)
27.12.2014 04:05 -6,9 C 89 % 1016,4 hPa 0,0 l/m 1,4 km/h (1 Bft) O-SO 112 -8,4 C -6,6 C 0,0 km/h (0 Bft)
27.12.2014 04:10 -6,9 C 90 % 1016,4 hPa 0,0 l/m 1,3 km/h (1 Bft) O-SO 112 -8,3 C -6,6 C 0,0 km/h (0 Bft)
27.12.2014 04:15 -6,7 C 90 % 1016,4 hPa 0,0 l/m 0,6 km/h (0 Bft) O-NO 67 -8,1 C -6,7 C 0,0 km/h (0 Bft)
27.12.2014 04:20 -6,7 C 90 % 1015,5 hPa 0,0 l/m 0,5 km/h (0 Bft) N-NO 22 -8,1 C -6,8 C 1,8 km/h (1 Bft)
27.12.2014 04:25 -7,0 C 90 % 1015,5 hPa 0,0 l/m 0,3 km/h (0 Bft) N-NO 22 -8,4 C -6,9 C 0,0 km/h (0 Bft)
27.12.2014 04:30 -7,1 C 90 % 1015,5 hPa 0,0 l/m 0,5 km/h (0 Bft) NW 315 -8,5 C -7,1 C 0,0 km/h (0 Bft)
27.12.2014 04:35 -7,3 C 90 % 1015,5 hPa 0,0 l/m 0,2 km/h (0 Bft) NW 315 -8,7 C -7,3 C 0,0 km/h (0 Bft)
27.12.2014 04:40 -7,4 C 90 % 1014,8 hPa 0,0 l/m 0,2 km/h (0 Bft) NW 315 -8,8 C -7,5 C 0,0 km/h (0 Bft)
27.12.2014 04:45 -7,4 C 90 % 1014,8 hPa 0,0 l/m 0,0 km/h (0 Bft) N-NW 337 -8,8 C -7,5 C 0,0 km/h (0 Bft)
27.12.2014 04:50 -7,2 C 90 % 1014,8 hPa 0,0 l/m 0,0 km/h (0 Bft) N-NW 337 -8,6 C -7,6 C 0,0 km/h (0 Bft)
27.12.2014 04:53 -7,3 C 90 % 1014,8 hPa 0,0 l/m 0,0 km/h (0 Bft) N-NO 22 -8,7 C -7,6 C 0,0 km/h (0 Bft)
27.12.2014 04:55 -7,4 C 90 % 1013,9 hPa 0,0 l/m 0,0 km/h (0 Bft) NW 315 -8,8 C -7,8 C 0,0 km/h (0 Bft)
27.12.2014 05:00 -7,4 C 90 % 1013,9 hPa 0,0 l/m 0,0 km/h (0 Bft) N-NW 337 -8,8 C -7,8 C 0,0 km/h (0 Bft)
27.12.2014 05:05 -7,8 C 89 % 1013,9 hPa 0,0 l/m 0,0 km/h (0 Bft) N-NW 337 -9,3 C -8,0 C 0,0 km/h (0 Bft)
27.12.2014 05:10 -7,7 C 89 % 1013,9 hPa 0,0 l/m 0,0 km/h (0 Bft) N-NW 337 -9,2 C -8,1 C 0,0 km/h (0 Bft)
27.12.2014 05:15 -7,9 C 89 % 1013,2 hPa 0,0 l/m 0,0 km/h (0 Bft) NW 315 -9,4 C -8,2 C 0,0 km/h (0 Bft)
27.12.2014 05:20 -7,7 C 89 % 1013,2 hPa 0,0 l/m 0,0 km/h (0 Bft) NW 315 -9,2 C -8,3 C 0,0 km/h (0 Bft)
27.12.2014 05:25 -7,9 C 89 % 1013,2 hPa 0,0 l/m 0,0 km/h (0 Bft) NW 315 -9,4 C -8,5 C 0,0 km/h (0 Bft)
27.12.2014 05:30 -7,9 C 89 % 1013,2 hPa 0,0 l/m 0,0 km/h (0 Bft) NW 315 -9,4 C -8,6 C 0,0 km/h (0 Bft)
27.12.2014 05:35 -7,9 C 89 % 1012,6 hPa 0,0 l/m 0,0 km/h (0 Bft) NW 315 -9,4 C -8,6 C 0,0 km/h (0 Bft)
27.12.2014 05:40 -8,0 C 89 % 1012,6 hPa 0,0 l/m 0,0 km/h (0 Bft) NW 315 -9,5 C -8,8 C 0,0 km/h (0 Bft)
27.12.2014 05:45 -8,1 C 89 % 1012,6 hPa 0,0 l/m 0,0 km/h (0 Bft) NW 315 -9,6 C -8,9 C 0,0 km/h (0 Bft)
27.12.2014 05:50 -8,2 C 89 % 1012,6 hPa 0,0 l/m 0,0 km/h (0 Bft) NO 45 -9,7 C -8,9 C 0,0 km/h (0 Bft)
27.12.2014 05:55 -8,3 C 88 % 1010,6 hPa 0,0 l/m 0,0 km/h (0 Bft) NO 45 -9,9 C -8,7 C 0,0 km/h (0 Bft)
27.12.2014 06:00 -8,3 C 88 % 1010,6 hPa 0,0 l/m 0,0 km/h (0 Bft) NO 45 -9,9 C -8,7 C 0,0 km/h (0 Bft)
27.12.2014 06:05 -8,3 C 88 % 1010,6 hPa 0,0 l/m 0,0 km/h (0 Bft) NO 45 -9,9 C -8,7 C 0,0 km/h (0 Bft)
27.12.2014 06:10 -8,3 C 88 % 1010,6 hPa 0,0 l/m 0,0 km/h (0 Bft) NO 45 -9,9 C -8,7 C 0,0 km/h (0 Bft)
27.12.2014 06:15 -8,2 C 88 % 1010,6 hPa 0,0 l/m 0,0 km/h (0 Bft) N-NO 22 -9,8 C -8,8 C 0,0 km/h (0 Bft)
27.12.2014 06:20 -8,3 C 88 % 1009,1 hPa 0,0 l/m 0,0 km/h (0 Bft) N-NO 22 -9,9 C -8,8 C 0,0 km/h (0 Bft)
27.12.2014 06:26 -8,1 C 88 % 1009,1 hPa 0,0 l/m 0,5 km/h (0 Bft) O-SO 112 -9,7 C -8,7 C 0,0 km/h (0 Bft)
27.12.2014 06:30 -8,1 C 88 % 1009,1 hPa 0,0 l/m 0,5 km/h (0 Bft) O-SO 112 -9,7 C -8,7 C 0,0 km/h (0 Bft)
27.12.2014 06:35 -7,7 C 88 % 1009,1 hPa 0,0 l/m 1,0 km/h (0 Bft) SO 135 -9,3 C -8,4 C 2,6 km/h (1 Bft)
27.12.2014 06:40 -7,4 C 89 % 1008,2 hPa 0,0 l/m 1,3 km/h (1 Bft) O-SO 112 -8,9 C -8,0 C 2,4 km/h (1 Bft)
27.12.2014 06:45 -7,2 C 89 % 1008,2 hPa 0,0 l/m 1,6 km/h (1 Bft) O-SO 112 -8,7 C -7,7 C 2,6 km/h (1 Bft)
27.12.2014 06:50 -7,0 C 89 % 1008,2 hPa 0,0 l/m 1,3 km/h (1 Bft) O 90 -8,5 C -7,4 C 0,0 km/h (0 Bft)
27.12.2014 06:55 -7,1 C 89 % 1008,2 hPa 0,0 l/m 0,6 km/h (0 Bft) O-SO 112 -8,6 C -7,3 C 0,0 km/h (0 Bft)
27.12.2014 07:00 -6,8 C 89 % 1008,5 hPa 0,0 l/m 0,3 km/h (0 Bft) O 90 -8,3 C -7,1 C 0,0 km/h (0 Bft)
27.12.2014 07:05 -7,0 C 89 % 1008,5 hPa 0,0 l/m 0,3 km/h (0 Bft) O-SO 112 -8,5 C -7,2 C 0,0 km/h (0 Bft)
27.12.2014 07:10 -6,8 C 89 % 1008,5 hPa 0,0 l/m 0,0 km/h (0 Bft) O 90 -8,3 C -7,1 C 0,0 km/h (0 Bft)
27.12.2014 07:15 -6,9 C 89 % 1008,5 hPa 0,0 l/m 0,0 km/h (0 Bft) O 90 -8,4 C -7,1 C 0,0 km/h (0 Bft)
27.12.2014 07:20 -6,9 C 89 % 1008,4 hPa 0,0 l/m 0,0 km/h (0 Bft) O-NO 67 -8,4 C -7,2 C 0,0 km/h (0 Bft)
27.12.2014 07:25 -6,9 C 89 % 1008,4 hPa 0,0 l/m 0,0 km/h (0 Bft) O-NO 67 -8,4 C -7,2 C 0,0 km/h (0 Bft)
27.12.2014 07:30 -6,8 C 89 % 1008,4 hPa 0,0 l/m 0,0 km/h (0 Bft) O-SO 112 -8,3 C -7,1 C 0,0 km/h (0 Bft)
27.12.2014 07:35 -6,7 C 89 % 1008,4 hPa 0,0 l/m 0,0 km/h (0 Bft) O-SO 112 -8,2 C -7,1 C 0,0 km/h (0 Bft)
27.12.2014 07:40 -6,5 C 89 % 1008,0 hPa 0,0 l/m 0,0 km/h (0 Bft) O-SO 112 -8,0 C -6,9 C 0,0 km/h (0 Bft)
27.12.2014 07:45 -6,5 C 89 % 1008,0 hPa 0,0 l/m 0,0 km/h (0 Bft) SO 135 -8,0 C -6,9 C 0,0 km/h (0 Bft)
27.12.2014 07:50 -6,4 C 89 % 1008,0 hPa 0,0 l/m 0,2 km/h (0 Bft) SO 135 -7,9 C -6,9 C 1,6 km/h (1 Bft)
27.12.2014 07:55 -6,5 C 89 % 1008,0 hPa 0,0 l/m 0,3 km/h (0 Bft) SO 135 -8,0 C -6,9 C 0,0 km/h (0 Bft)
27.12.2014 08:00 -6,4 C 90 % 1007,5 hPa 0,0 l/m 0,2 km/h (0 Bft) SO 135 -7,8 C -6,9 C 0,0 km/h (0 Bft)
27.12.2014 08:05 -6,3 C 90 % 1007,5 hPa 0,0 l/m 0,0 km/h (0 Bft) SO 135 -7,7 C -6,8 C 0,0 km/h (0 Bft)
27.12.2014 08:10 -6,2 C 90 % 1007,5 hPa 0,0 l/m 0,5 km/h (0 Bft) O-NO 67 -7,6 C -6,7 C 1,8 km/h (1 Bft)
27.12.2014 08:15 -6,2 C 90 % 1007,5 hPa 0,0 l/m 1,3 km/h (1 Bft) W-SW 247 -7,6 C -6,7 C 2,1 km/h (1 Bft)
27.12.2014 08:20 -6,1 C 90 % 1007,2 hPa 0,0 l/m 1,1 km/h (1 Bft) SW 225 -7,5 C -6,6 C 0,0 km/h (0 Bft)
27.12.2014 08:25 -6,1 C 90 % 1007,2 hPa 0,0 l/m 0,6 km/h (0 Bft) SW 225 -7,5 C -6,6 C 0,0 km/h (0 Bft)
27.12.2014 08:30 -5,9 C 90 % 1007,2 hPa 0,0 l/m 0,3 km/h (0 Bft) S-SO 157 -7,3 C -6,4 C 0,0 km/h (0 Bft)
27.12.2014 08:35 -5,8 C 90 % 1007,2 hPa 0,0 l/m 0,0 km/h (0 Bft) S-SO 157 -7,2 C -6,3 C 0,0 km/h (0 Bft)
27.12.2014 08:40 -5,7 C 90 % 1006,8 hPa 0,0 l/m 0,2 km/h (0 Bft) S-SO 157 -7,1 C -6,3 C 0,0 km/h (0 Bft)
27.12.2014 08:45 -5,6 C 90 % 1006,8 hPa 0,0 l/m 0,2 km/h (0 Bft) S 180 -7,0 C -6,1 C 0,0 km/h (0 Bft)
27.12.2014 08:48 -5,6 C 90 % 1006,8 hPa 0,0 l/m 1,9 km/h (1 Bft) W-SW 247 -7,0 C -6,1 C 3,9 km/h (1 Bft)
27.12.2014 08:50 -5,5 C 90 % 1006,8 hPa 0,0 l/m 2,1 km/h (1 Bft) SW 225 -6,9 C -6,1 C 0,0 km/h (0 Bft)
27.12.2014 08:55 -5,0 C 90 % 1006,5 hPa 0,0 l/m 1,1 km/h (1 Bft) NW 315 -6,4 C -5,8 C 3,9 km/h (1 Bft)
27.12.2014 09:00 -5,1 C 90 % 1006,5 hPa 0,0 l/m 1,3 km/h (1 Bft) W-SW 247 -6,5 C -5,7 C 1,8 km/h (1 Bft)
27.12.2014 09:05 -4,9 C 91 % 1006,5 hPa 0,0 l/m 1,3 km/h (1 Bft) SW 225 -6,1 C -5,5 C 0,0 km/h (0 Bft)
27.12.2014 09:10 -5,0 C 91 % 1006,5 hPa 0,0 l/m 0,6 km/h (0 Bft) W-NW 292 -6,2 C -5,4 C 2,4 km/h (1 Bft)
27.12.2014 09:15 -4,7 C 91 % 1006,2 hPa 0,0 l/m 0,8 km/h (0 Bft) O-NO 67 -5,9 C -5,3 C 2,4 km/h (1 Bft)
27.12.2014 09:20 -4,6 C 91 % 1006,2 hPa 0,0 l/m 0,6 km/h (0 Bft) SO 135 -5,8 C -5,2 C 0,0 km/h (0 Bft)
27.12.2014 09:25 -4,6 C 91 % 1006,2 hPa 0,0 l/m 0,6 km/h (0 Bft) SO 135 -5,8 C -5,2 C 0,0 km/h (0 Bft)
27.12.2014 09:30 -4,5 C 91 % 1006,2 hPa 0,0 l/m 0,3 km/h (0 Bft) SO 135 -5,7 C -5,0 C 0,0 km/h (0 Bft)
27.12.2014 09:35 -4,4 C 91 % 1006,2 hPa 0,0 l/m 0,2 km/h (0 Bft) SO 135 -5,6 C -4,9 C 0,0 km/h (0 Bft)
27.12.2014 09:40 -4,2 C 91 % 1005,8 hPa 0,0 l/m 0,0 km/h (0 Bft) SO 135 -5,4 C -4,7 C 0,0 km/h (0 Bft)
27.12.2014 09:45 -4,0 C 91 % 1005,8 hPa 0,0 l/m 0,0 km/h (0 Bft) SO 135 -5,2 C -4,7 C 0,0 km/h (0 Bft)
27.12.2014 09:50 -3,9 C 92 % 1005,8 hPa 0,0 l/m 0,0 km/h (0 Bft) O-NO 67 -5,0 C -4,5 C 1,9 km/h (1 Bft)
27.12.2014 09:55 -4,0 C 92 % 1005,8 hPa 0,0 l/m 0,5 km/h (0 Bft) O-NO 67 -5,1 C -4,4 C 1,8 km/h (1 Bft)
27.12.2014 10:00 -3,9 C 92 % 1005,1 hPa 0,0 l/m 0,5 km/h (0 Bft) O-NO 67 -5,0 C -4,4 C 0,0 km/h (0 Bft)
27.12.2014 10:05 -3,9 C 92 % 1005,1 hPa 0,0 l/m 0,3 km/h (0 Bft) O-SO 112 -5,0 C -4,4 C 0,0 km/h (0 Bft)
27.12.2014 10:10 -3,9 C 92 % 1005,1 hPa 0,0 l/m 0,6 km/h (0 Bft) O-NO 67 -5,0 C -4,3 C 1,8 km/h (1 Bft)
27.12.2014 10:15 -3,9 C 92 % 1005,1 hPa 0,0 l/m 0,5 km/h (0 Bft) O-NO 67 -5,0 C -4,2 C 0,0 km/h (0 Bft)
27.12.2014 10:20 -3,7 C 92 % 1004,8 hPa 0,0 l/m 0,2 km/h (0 Bft) O 90 -4,8 C -4,1 C 0,0 km/h (0 Bft)
27.12.2014 10:25 -3,7 C 92 % 1004,8 hPa 0,0 l/m 0,3 km/h (0 Bft) O 90 -4,8 C -4,1 C 2,6 km/h (1 Bft)
27.12.2014 10:30 -3,5 C 92 % 1004,8 hPa 0,0 l/m 0,8 km/h (0 Bft) NO 45 -4,6 C -3,9 C 2,1 km/h (1 Bft)
27.12.2014 10:35 -3,2 C 92 % 1004,8 hPa 0,0 l/m 1,1 km/h (1 Bft) O 90 -4,3 C -3,8 C 2,9 km/h (1 Bft)
27.12.2014 10:40 -3,0 C 92 % 1004,1 hPa 0,0 l/m 1,6 km/h (1 Bft) O-NO 67 -4,1 C -3,6 C 3,1 km/h (1 Bft)
27.12.2014 10:45 -2,7 C 92 % 1004,1 hPa 0,0 l/m 1,8 km/h (1 Bft) O-NO 67 -3,8 C -3,4 C 1,9 km/h (1 Bft)
27.12.2014 10:50 -2,2 C 92 % 1004,1 hPa 0,0 l/m 1,1 km/h (1 Bft) O-NO 67 -3,3 C -3,0 C 0,0 km/h (0 Bft)
27.12.2014 10:55 -1,9 C 93 % 1004,1 hPa 0,0 l/m 0,6 km/h (0 Bft) O-SO 112 -2,9 C -2,7 C 2,1 km/h (1 Bft)
27.12.2014 11:00 -1,8 C 93 % 1003,4 hPa 0,0 l/m 0,6 km/h (0 Bft) O-NO 67 -2,8 C -2,5 C 4,2 km/h (1 Bft)
27.12.2014 11:05 -1,9 C 93 % 1003,4 hPa 0,0 l/m 1,0 km/h (0 Bft) O 90 -2,9 C -2,4 C 2,1 km/h (1 Bft)
27.12.2014 11:10 -1,9 C 93 % 1003,4 hPa 0,0 l/m 1,8 km/h (1 Bft) W-SW 247 -2,9 C -2,3 C 6,1 km/h (2 Bft)
27.12.2014 11:15 -2,1 C 93 % 1003,4 hPa 0,0 l/m 2,6 km/h (1 Bft) SW 225 -3,1 C -2,7 C 2,7 km/h (1 Bft)
27.12.2014 11:20 -1,9 C 93 % 1002,8 hPa 0,0 l/m 2,7 km/h (1 Bft) SW 225 -2,9 C -3,0 C 3,2 km/h (1 Bft)
27.12.2014 11:25 -1,8 C 93 % 1002,8 hPa 0,0 l/m 2,4 km/h (1 Bft) NW 315 -2,8 C -2,6 C 2,6 km/h (1 Bft)
27.12.2014 11:30 -2,0 C 93 % 1002,8 hPa 0,0 l/m 2,1 km/h (1 Bft) W 270 -3,0 C -2,3 C 4,8 km/h (1 Bft)
27.12.2014 11:35 -2,1 C 93 % 1002,8 hPa 0,0 l/m 2,3 km/h (1 Bft) W 270 -3,1 C -2,4 C 1,6 km/h (1 Bft)
27.12.2014 11:40 -2,1 C 93 % 1002,6 hPa 0,0 l/m 3,1 km/h (1 Bft) W-SW 247 -3,1 C -3,3 C 6,6 km/h (2 Bft)
27.12.2014 11:45 -2,1 C 93 % 1002,6 hPa 0,0 l/m 2,7 km/h (1 Bft) SW 225 -3,1 C -3,1 C 2,3 km/h (1 Bft)
27.12.2014 11:48 -2,1 C 93 % 1002,6 hPa 0,0 l/m 3,1 km/h (1 Bft) W 270 -3,1 C -3,4 C 3,7 km/h (1 Bft)
27.12.2014 11:50 -1,9 C 93 % 1002,6 hPa 0,0 l/m 1,6 km/h (1 Bft) W-NW 292 -2,9 C -2,5 C 0,0 km/h (0 Bft)
27.12.2014 11:55 -1,7 C 93 % 1002,0 hPa 0,0 l/m 0,5 km/h (0 Bft) W-NW 292 -2,7 C -2,3 C 0,0 km/h (0 Bft)
27.12.2014 12:00 -1,7 C 93 % 1002,0 hPa 0,0 l/m 0,6 km/h (0 Bft) W 270 -2,7 C -2,2 C 2,9 km/h (1 Bft)
27.12.2014 12:05 -1,8 C 92 % 1002,0 hPa 0,0 l/m 1,0 km/h (0 Bft) W-NW 292 -2,9 C -2,2 C 1,6 km/h (1 Bft)
27.12.2014 12:10 -1,8 C 92 % 1002,0 hPa 0,0 l/m 1,0 km/h (0 Bft) W 270 -2,9 C -2,2 C 0,0 km/h (0 Bft)
27.12.2014 12:15 -1,7 C 92 % 1001,6 hPa 0,0 l/m 0,8 km/h (0 Bft) W 270 -2,8 C -2,1 C 2,9 km/h (1 Bft)
27.12.2014 12:20 -1,8 C 92 % 1001,6 hPa 0,0 l/m 1,1 km/h (1 Bft) W-NW 292 -2,9 C -2,1 C 1,9 km/h (1 Bft)
27.12.2014 12:25 -1,5 C 93 % 1001,6 hPa 0,0 l/m 1,1 km/h (1 Bft) NW 315 -2,5 C -2,0 C 1,6 km/h (1 Bft)
27.12.2014 12:30 -1,5 C 93 % 1001,6 hPa 0,0 l/m 1,1 km/h (1 Bft) NW 315 -2,5 C -2,0 C 1,6 km/h (1 Bft)
27.12.2014 12:35 -1,3 C 93 % 1001,6 hPa 0,0 l/m 0,8 km/h (0 Bft) W-SW 247 -2,3 C -1,8 C 2,6 km/h (1 Bft)
27.12.2014 12:40 -1,3 C 93 % 1001,1 hPa 0,0 l/m 1,6 km/h (1 Bft) W 270 -2,3 C -1,8 C 4,0 km/h (1 Bft)
27.12.2014 12:45 -1,1 C 93 % 1001,1 hPa 0,0 l/m 1,6 km/h (1 Bft) W-SW 247 -2,1 C -1,7 C 0,0 km/h (0 Bft)
27.12.2014 12:50 -0,6 C 93 % 1001,1 hPa 0,0 l/m 0,5 km/h (0 Bft) SO 135 -1,6 C -1,5 C 0,0 km/h (0 Bft)
27.12.2014 12:55 -0,7 C 93 % 1001,1 hPa 0,0 l/m 0,8 km/h (0 Bft) W 270 -1,7 C -1,3 C 3,1 km/h (1 Bft)
27.12.2014 13:00 -0,7 C 93 % 1000,8 hPa 0,0 l/m 1,6 km/h (1 Bft) W-NW 292 -1,7 C -1,2 C 0,0 km/h (0 Bft)
27.12.2014 13:05 -0,3 C 93 % 1000,8 hPa 0,0 l/m 1,4 km/h (1 Bft) O-SO 112 -1,3 C -1,0 C 1,9 km/h (1 Bft)
27.12.2014 13:10 0,0 C 93 % 1000,8 hPa 0,0 l/m 0,2 km/h (0 Bft) O-NO 67 -1,0 C -0,9 C 0,0 km/h (0 Bft)
27.12.2014 13:15 0,1 C 93 % 1000,8 hPa 0,0 l/m 0,3 km/h (0 Bft) N-NO 22 -0,9 C -0,7 C 0,0 km/h (0 Bft)
27.12.2014 13:20 0,3 C 94 % 1000,2 hPa 0,0 l/m 0,6 km/h (0 Bft) NW 315 -0,5 C -0,4 C 2,4 km/h (1 Bft)
27.12.2014 13:25 0,4 C 94 % 1000,2 hPa 0,0 l/m 1,0 km/h (0 Bft) SW 225 -0,5 C -0,3 C 0,0 km/h (0 Bft)
27.12.2014 13:30 0,4 C 94 % 1000,2 hPa 0,0 l/m 2,1 km/h (1 Bft) W 270 -0,5 C -0,2 C 6,9 km/h (2 Bft)
27.12.2014 13:35 0,0 C 94 % 1000,2 hPa 0,0 l/m 2,7 km/h (1 Bft) W-SW 247 -0,8 C -0,6 C 3,4 km/h (1 Bft)
27.12.2014 13:40 0,0 C 94 % 1000,3 hPa 0,0 l/m 3,9 km/h (1 Bft) W 270 -0,8 C -1,8 C 7,4 km/h (2 Bft)
27.12.2014 13:45 -0,1 C 94 % 1000,3 hPa 0,0 l/m 4,0 km/h (1 Bft) W-SW 247 -0,9 C -1,9 C 3,7 km/h (1 Bft)
27.12.2014 13:50 0,2 C 94 % 1000,3 hPa 0,0 l/m 2,4 km/h (1 Bft) S-SO 157 -0,6 C -0,8 C 0,0 km/h (0 Bft)
27.12.2014 13:55 0,2 C 94 % 1000,3 hPa 0,0 l/m 1,6 km/h (1 Bft) W 270 -0,6 C -0,7 C 2,1 km/h (1 Bft)
27.12.2014 14:00 0,3 C 94 % 1000,5 hPa 0,0 l/m 1,4 km/h (1 Bft) W-SW 247 -0,5 C -0,5 C 0,0 km/h (0 Bft)
27.12.2014 14:05 0,4 C 94 % 1000,5 hPa 0,0 l/m 0,8 km/h (0 Bft) O-SO 112 -0,5 C -0,4 C 0,0 km/h (0 Bft)
27.12.2014 14:10 0,6 C 94 % 1000,5 hPa 0,0 l/m 0,5 km/h (0 Bft) NW 315 -0,3 C -0,2 C 0,0 km/h (0 Bft)
27.12.2014 14:15 0,8 C 94 % 1000,5 hPa 0,0 l/m 0,5 km/h (0 Bft) S 180 -0,1 C 0,0 C 1,8 km/h (1 Bft)
27.12.2014 14:20 0,8 C 94 % 1000,2 hPa 0,0 l/m 0,2 km/h (0 Bft) S 180 -0,1 C 0,2 C 1,6 km/h (1 Bft)
27.12.2014 14:25 1,1 C 94 % 1000,2 hPa 0,0 l/m 1,6 km/h (1 Bft) W-NW 292 0,2 C 0,3 C 8,5 km/h (2 Bft)
27.12.2014 14:30 1,3 C 93 % 1000,2 hPa 0,0 l/m 3,7 km/h (1 Bft) W-SW 247 0,3 C -0,1 C 12,1 km/h (2 Bft)
27.12.2014 14:35 1,3 C 93 % 1000,2 hPa 0,0 l/m 3,1 km/h (1 Bft) W-SW 247 0,3 C 0,4 C 2,3 km/h (1 Bft)
27.12.2014 14:40 1,3 C 93 % 1000,3 hPa 0,0 l/m 2,4 km/h (1 Bft) W 270 0,3 C 1,0 C 8,5 km/h (2 Bft)
27.12.2014 14:45 1,3 C 93 % 1000,3 hPa 0,0 l/m 3,4 km/h (1 Bft) W-SW 247 0,3 C 0,6 C 3,7 km/h (1 Bft)
27.12.2014 14:48 1,3 C 93 % 1000,3 hPa 0,0 l/m 3,5 km/h (1 Bft) W-SW 247 0,3 C 0,4 C 2,1 km/h (1 Bft)
27.12.2014 14:50 1,3 C 93 % 1000,3 hPa 0,0 l/m 3,2 km/h (1 Bft) NW 315 0,3 C 0,6 C 2,3 km/h (1 Bft)
27.12.2014 14:55 1,4 C 93 % 1000,1 hPa 0,0 l/m 2,6 km/h (1 Bft) SW 225 0,4 C 1,2 C 2,1 km/h (1 Bft)
27.12.2014 15:00 1,5 C 93 % 1000,1 hPa 0,0 l/m 2,1 km/h (1 Bft) W-NW 292 0,5 C 1,2 C 2,7 km/h (1 Bft)
27.12.2014 15:05 1,5 C 93 % 1000,1 hPa 0,0 l/m 1,8 km/h (1 Bft) S 180 0,5 C 1,4 C 2,7 km/h (1 Bft)
27.12.2014 15:10 1,6 C 92 % 1000,1 hPa 0,0 l/m 4,3 km/h (1 Bft) W-SW 247 0,4 C 0,3 C 13,2 km/h (3 Bft)
27.12.2014 15:15 1,6 C 91 % 1000,4 hPa 0,0 l/m 6,1 km/h (2 Bft) W-SW 247 0,3 C -0,2 C 5,8 km/h (2 Bft)
27.12.2014 15:20 1,5 C 91 % 1000,4 hPa 0,0 l/m 6,0 km/h (2 Bft) W-SW 247 0,2 C -0,2 C 15,9 km/h (3 Bft)
27.12.2014 15:25 1,5 C 91 % 1000,4 hPa 0,0 l/m 6,0 km/h (2 Bft) W-SW 247 0,2 C -0,2 C 4,3 km/h (1 Bft)
27.12.2014 15:30 1,1 C 90 % 1000,4 hPa 0,0 l/m 4,3 km/h (1 Bft) W-SW 247 -0,4 C 0,3 C 6,9 km/h (2 Bft)
27.12.2014 15:35 1,0 C 90 % 1000,4 hPa 0,0 l/m 3,9 km/h (1 Bft) W-SW 247 -0,5 C 0,4 C 4,7 km/h (1 Bft)
27.12.2014 15:40 1,0 C 90 % 1000,0 hPa 0,0 l/m 4,7 km/h (1 Bft) W-SW 247 -0,5 C -0,1 C 6,6 km/h (2 Bft)
27.12.2014 15:45 0,8 C 90 % 1000,0 hPa 0,0 l/m 5,3 km/h (1 Bft) W-SW 247 -0,6 C -0,4 C 10,1 km/h (2 Bft)
27.12.2014 15:50 0,4 C 90 % 1000,0 hPa 0,0 l/m 4,7 km/h (1 Bft) W 270 -1,0 C -0,6 C 3,5 km/h (1 Bft)
27.12.2014 15:55 0,2 C 90 % 1000,0 hPa 0,0 l/m 4,2 km/h (1 Bft) SW 225 -1,2 C -0,7 C 3,9 km/h (1 Bft)
27.12.2014 16:00 0,2 C 89 % 999,8 hPa 0,0 l/m 3,9 km/h (1 Bft) S-SW 202 -1,4 C -1,0 C 2,7 km/h (1 Bft)
27.12.2014 16:05 0,0 C 89 % 999,8 hPa 0,0 l/m 4,0 km/h (1 Bft) W 270 -1,6 C -1,3 C 4,2 km/h (1 Bft)
27.12.2014 16:10 0,0 C 89 % 999,8 hPa 0,0 l/m 3,1 km/h (1 Bft) SW 225 -1,6 C -0,9 C 0,0 km/h (0 Bft)
27.12.2014 16:15 0,2 C 90 % 999,8 hPa 0,0 l/m 2,3 km/h (1 Bft) W-SW 247 -1,2 C -0,3 C 0,0 km/h (0 Bft)
27.12.2014 16:20 -0,2 C 91 % 999,8 hPa 0,0 l/m 1,0 km/h (0 Bft) S-SW 202 -1,5 C -0,3 C 1,6 km/h (1 Bft)
27.12.2014 16:25 -0,5 C 91 % 999,8 hPa 0,0 l/m 0,6 km/h (0 Bft) S-SO 157 -1,8 C -0,6 C 1,6 km/h (1 Bft)
27.12.2014 16:30 -0,6 C 91 % 999,8 hPa 0,0 l/m 1,0 km/h (0 Bft) S 180 -1,9 C -1,2 C 0,0 km/h (0 Bft)
27.12.2014 16:35 -0,6 C 92 % 999,8 hPa 0,0 l/m 1,3 km/h (1 Bft) SO 135 -1,7 C -1,4 C 0,0 km/h (0 Bft)
27.12.2014 16:40 -0,5 C 92 % 999,4 hPa 0,0 l/m 0,8 km/h (0 Bft) S 180 -1,6 C -1,7 C 1,8 km/h (1 Bft)
27.12.2014 16:45 -0,5 C 93 % 999,4 hPa 0,0 l/m 0,5 km/h (0 Bft) S-SO 157 -1,5 C -1,5 C 0,0 km/h (0 Bft)
27.12.2014 16:50 -0,2 C 93 % 999,4 hPa 0,0 l/m 0,6 km/h (0 Bft) S-SW 202 -1,2 C -1,3 C 0,0 km/h (0 Bft)
27.12.2014 16:55 -0,1 C 93 % 999,4 hPa 0,0 l/m 0,8 km/h (0 Bft) W-SW 247 -1,1 C -1,0 C 0,0 km/h (0 Bft)
27.12.2014 17:00 -0,1 C 93 % 999,7 hPa 0,0 l/m 1,4 km/h (1 Bft) W 270 -1,1 C -0,8 C 3,9 km/h (1 Bft)
27.12.2014 17:05 0,0 C 93 % 999,7 hPa 0,0 l/m 3,1 km/h (1 Bft) W 270 -1,0 C -1,1 C 10,9 km/h (2 Bft)
27.12.2014 17:10 0,2 C 93 % 999,7 hPa 0,0 l/m 5,5 km/h (1 Bft) SW 225 -0,8 C -1,7 C 2,3 km/h (1 Bft)
27.12.2014 17:15 0,2 C 93 % 999,7 hPa 0,0 l/m 6,0 km/h (2 Bft) W 270 -0,8 C -1,9 C 8,7 km/h (2 Bft)
27.12.2014 17:20 0,2 C 93 % 999,6 hPa 0,0 l/m 5,0 km/h (1 Bft) W 270 -0,8 C -1,3 C 9,8 km/h (2 Bft)
27.12.2014 17:25 0,2 C 93 % 999,6 hPa 0,0 l/m 5,3 km/h (1 Bft) W 270 -0,8 C -1,5 C 8,5 km/h (2 Bft)
27.12.2014 17:30 0,2 C 93 % 999,6 hPa 0,0 l/m 5,6 km/h (1 Bft) N-NW 337 -0,8 C -1,9 C 5,5 km/h (1 Bft)
27.12.2014 17:35 0,1 C 93 % 999,6 hPa 0,0 l/m 6,1 km/h (2 Bft) W-NW 292 -0,9 C -2,2 C 9,8 km/h (2 Bft)
27.12.2014 17:40 0,0 C 93 % 999,8 hPa 0,0 l/m 6,9 km/h (2 Bft) W-SW 247 -1,0 C -3,3 C 7,7 km/h (2 Bft)
27.12.2014 17:45 0,0 C 93 % 999,8 hPa 0,0 l/m 7,7 km/h (2 Bft) W 270 -1,0 C -4,6 C 9,0 km/h (2 Bft)
27.12.2014 17:50 -0,1 C 92 % 999,8 hPa 0,0 l/m 8,7 km/h (2 Bft) W-SW 247 -1,2 C -6,3 C 20,9 km/h (4 Bft)
27.12.2014 17:55 -0,2 C 92 % 1000,0 hPa 0,0 l/m 7,9 km/h (2 Bft) W-SW 247 -1,3 C -5,3 C 9,2 km/h (2 Bft)
27.12.2014 18:00 -0,2 C 92 % 1000,0 hPa 0,0 l/m 8,9 km/h (2 Bft) W 270 -1,3 C -6,7 C 8,2 km/h (2 Bft)
27.12.2014 18:05 -0,3 C 92 % 1000,0 hPa 0,0 l/m 9,0 km/h (2 Bft) W 270 -1,4 C -6,8 C 14,0 km/h (3 Bft)
27.12.2014 18:10 -0,3 C 92 % 1000,0 hPa 0,0 l/m 9,3 km/h (2 Bft) W 270 -1,4 C -7,3 C 12,2 km/h (2 Bft)
27.12.2014 18:15 -0,3 C 91 % 999,9 hPa 0,0 l/m 10,3 km/h (2 Bft) W-SW 247 -1,6 C -8,5 C 13,5 km/h (3 Bft)
27.12.2014 18:20 -0,3 C 91 % 999,9 hPa 0,0 l/m 9,7 km/h (2 Bft) W 270 -1,6 C -7,7 C 5,1 km/h (1 Bft)
27.12.2014 18:25 -0,3 C 91 % 999,9 hPa 0,0 l/m 9,2 km/h (2 Bft) W 270 -1,6 C -7,1 C 8,2 km/h (2 Bft)
27.12.2014 18:30 -0,3 C 91 % 999,9 hPa 0,0 l/m 9,2 km/h (2 Bft) W 270 -1,6 C -7,1 C 8,2 km/h (2 Bft)
27.12.2014 18:35 -0,4 C 91 % 999,9 hPa 0,0 l/m 8,4 km/h (2 Bft) W-SW 247 -1,7 C -6,1 C 3,1 km/h (1 Bft)
27.12.2014 18:40 -0,4 C 91 % 1000,0 hPa 0,0 l/m 7,7 km/h (2 Bft) W-SW 247 -1,7 C -5,1 C 6,1 km/h (2 Bft)
27.12.2014 18:45 -0,5 C 91 % 1000,0 hPa 0,0 l/m 7,1 km/h (2 Bft) W 270 -1,8 C -4,3 C 11,9 km/h (2 Bft)
27.12.2014 18:50 -0,6 C 92 % 1000,0 hPa 0,0 l/m 6,1 km/h (2 Bft) W-SW 247 -1,7 C -3,2 C 7,6 km/h (2 Bft)
27.12.2014 18:55 -0,6 C 92 % 1000,0 hPa 0,0 l/m 6,3 km/h (2 Bft) W-SW 247 -1,7 C -3,3 C 5,1 km/h (1 Bft)
27.12.2014 19:00 -0,6 C 92 % 1000,0 hPa 0,0 l/m 5,5 km/h (1 Bft) W-SW 247 -1,7 C -3,1 C 6,0 km/h (2 Bft)
27.12.2014 19:05 -0,6 C 92 % 1000,0 hPa 0,0 l/m 6,6 km/h (2 Bft) W 270 -1,7 C -3,8 C 9,8 km/h (2 Bft)
27.12.2014 19:10 -0,6 C 93 % 1000,0 hPa 0,0 l/m 7,4 km/h (2 Bft) W 270 -1,6 C -5,1 C 10,0 km/h (2 Bft)
27.12.2014 19:15 -0,6 C 93 % 1000,0 hPa 0,0 l/m 7,9 km/h (2 Bft) W-NW 292 -1,6 C -5,8 C 7,2 km/h (2 Bft)
27.12.2014 19:20 -0,7 C 93 % 1000,3 hPa 0,0 l/m 7,6 km/h (2 Bft) NW 315 -1,7 C -5,5 C 15,8 km/h (3 Bft)
27.12.2014 19:25 -0,6 C 93 % 1000,3 hPa 0,0 l/m 8,2 km/h (2 Bft) O 90 -1,6 C -6,3 C 15,9 km/h (3 Bft)
27.12.2014 19:30 -0,7 C 92 % 1000,3 hPa 0,0 l/m 10,1 km/h (2 Bft) W-SW 247 -1,8 C -8,7 C 13,8 km/h (3 Bft)
27.12.2014 19:35 -0,8 C 92 % 1000,3 hPa 0,0 l/m 9,0 km/h (2 Bft) W-SW 247 -1,9 C -7,4 C 9,2 km/h (2 Bft)
27.12.2014 19:40 -0,8 C 92 % 1000,2 hPa 0,0 l/m 7,9 km/h (2 Bft) W 270 -1,9 C -5,9 C 11,6 km/h (2 Bft)
27.12.2014 19:45 -0,8 C 92 % 1000,2 hPa 0,0 l/m 8,2 km/h (2 Bft) W 270 -1,9 C -6,4 C 10,8 km/h (2 Bft)
27.12.2014 19:50 -0,8 C 92 % 1000,2 hPa 0,0 l/m 7,6 km/h (2 Bft) W-SW 247 -1,9 C -5,5 C 6,9 km/h (2 Bft)
27.12.2014 19:55 -0,8 C 92 % 1000,2 hPa 0,0 l/m 6,1 km/h (2 Bft) SW 225 -1,9 C -3,6 C 6,3 km/h (2 Bft)
27.12.2014 20:00 -0,8 C 92 % 999,8 hPa 0,0 l/m 4,8 km/h (1 Bft) W-NW 292 -1,9 C -2,9 C 7,1 km/h (2 Bft)
27.12.2014 20:03 -0,8 C 92 % 999,8 hPa 0,0 l/m 4,7 km/h (1 Bft) W-SW 247 -1,9 C -2,9 C 5,3 km/h (1 Bft)
27.12.2014 20:05 -0,8 C 92 % 999,8 hPa 0,0 l/m 4,7 km/h (1 Bft) W-SW 247 -1,9 C -2,9 C 5,3 km/h (1 Bft)
27.12.2014 20:10 -0,8 C 92 % 999,8 hPa 0,0 l/m 5,1 km/h (1 Bft) W-SW 247 -1,9 C -3,2 C 8,0 km/h (2 Bft)
27.12.2014 20:15 -0,8 C 92 % 999,8 hPa 0,0 l/m 5,0 km/h (1 Bft) W-SW 247 -1,9 C -3,1 C 6,1 km/h (2 Bft)
27.12.2014 20:20 -0,8 C 92 % 1000,1 hPa 0,0 l/m 5,5 km/h (1 Bft) SW 225 -1,9 C -3,2 C 4,2 km/h (1 Bft)
27.12.2014 20:25 -0,7 C 92 % 1000,1 hPa 0,0 l/m 5,6 km/h (1 Bft) NW 315 -1,8 C -3,3 C 4,8 km/h (1 Bft)
27.12.2014 20:30 -0,6 C 92 % 1000,1 hPa 0,0 l/m 5,8 km/h (2 Bft) O-SO 112 -1,7 C -3,2 C 6,6 km/h (2 Bft)
27.12.2014 20:35 -0,7 C 92 % 1000,1 hPa 0,0 l/m 6,1 km/h (2 Bft) W-SW 247 -1,8 C -3,2 C 4,0 km/h (1 Bft)
27.12.2014 20:40 -0,7 C 92 % 1000,1 hPa 0,0 l/m 6,1 km/h (2 Bft) W 270 -1,8 C -3,4 C 6,1 km/h (2 Bft)
27.12.2014 20:45 -0,7 C 92 % 1000,1 hPa 0,0 l/m 6,1 km/h (2 Bft) W-NW 292 -1,8 C -3,4 C 4,8 km/h (1 Bft)
27.12.2014 20:50 -0,7 C 92 % 1000,1 hPa 0,0 l/m 6,0 km/h (2 Bft) W-SW 247 -1,8 C -3,3 C 2,4 km/h (1 Bft)
27.12.2014 20:55 -0,7 C 92 % 1000,1 hPa 0,0 l/m 5,6 km/h (1 Bft) W-NW 292 -1,8 C -3,2 C 6,4 km/h (2 Bft)
27.12.2014 21:00 -0,8 C 92 % 1000,2 hPa 0,0 l/m 5,6 km/h (1 Bft) SW 225 -1,9 C -3,3 C 6,0 km/h (2 Bft)
27.12.2014 21:05 -0,8 C 92 % 1000,2 hPa 0,0 l/m 5,8 km/h (2 Bft) W 270 -1,9 C -3,3 C 7,4 km/h (2 Bft)
27.12.2014 21:10 -0,6 C 91 % 1000,2 hPa 0,0 l/m 6,3 km/h (2 Bft) SW 225 -1,9 C -3,6 C 8,4 km/h (2 Bft)
27.12.2014 21:15 -0,7 C 90 % 1000,2 hPa 0,0 l/m 6,0 km/h (2 Bft) W 270 -2,1 C -3,4 C 9,3 km/h (2 Bft)
27.12.2014 21:20 -0,8 C 90 % 1000,2 hPa 0,0 l/m 5,5 km/h (1 Bft) W 270 -2,2 C -3,3 C 4,2 km/h (1 Bft)
27.12.2014 21:25 -0,8 C 90 % 1000,2 hPa 0,0 l/m 5,0 km/h (1 Bft) S-SW 202 -2,2 C -3,1 C 3,4 km/h (1 Bft)
27.12.2014 21:30 -0,8 C 90 % 1000,2 hPa 0,0 l/m 4,2 km/h (1 Bft) W-SW 247 -2,2 C -2,6 C 7,2 km/h (2 Bft)
27.12.2014 21:35 -0,7 C 90 % 1000,2 hPa 0,0 l/m 4,3 km/h (1 Bft) W 270 -2,1 C -2,7 C 8,0 km/h (2 Bft)
27.12.2014 21:40 -0,8 C 90 % 1000,1 hPa 0,0 l/m 4,7 km/h (1 Bft) W 270 -2,2 C -2,7 C 3,1 km/h (1 Bft)
27.12.2014 21:44 -0,7 C 90 % 1000,1 hPa 0,0 l/m 3,9 km/h (1 Bft) SW 225 -2,1 C -2,3 C 3,7 km/h (1 Bft)
27.12.2014 21:45 -0,5 C 88 % 1000,1 hPa 0,0 l/m 4,0 km/h (1 Bft) W 270 -2,2 C -2,3 C 6,1 km/h (2 Bft)
27.12.2014 21:50 -0,5 C 88 % 1000,1 hPa 0,0 l/m 4,5 km/h (1 Bft) W-SW 247 -2,2 C -2,5 C 3,9 km/h (1 Bft)
27.12.2014 21:55 -0,8 C 88 % 1000,3 hPa 0,0 l/m 3,1 km/h (1 Bft) S 180 -2,5 C -1,6 C 0,0 km/h (0 Bft)
27.12.2014 22:00 -1,0 C 89 % 1000,3 hPa 0,0 l/m 2,1 km/h (1 Bft) S-SW 202 -2,6 C -1,1 C 0,0 km/h (0 Bft)
27.12.2014 22:05 -0,8 C 89 % 1000,3 hPa 0,0 l/m 1,9 km/h (1 Bft) S 180 -2,4 C -1,2 C 11,4 km/h (2 Bft)
27.12.2014 22:10 -0,7 C 89 % 1000,3 hPa 0,0 l/m 2,6 km/h (1 Bft) S 180 -2,3 C -1,3 C 2,4 km/h (1 Bft)
27.12.2014 22:15 -0,6 C 89 % 1000,4 hPa 0,0 l/m 3,5 km/h (1 Bft) W-SW 247 -2,2 C -1,9 C 12,6 km/h (3 Bft)
27.12.2014 22:20 -0,6 C 89 % 1000,4 hPa 0,0 l/m 4,2 km/h (1 Bft) W 270 -2,2 C -2,2 C 10,3 km/h (2 Bft)
27.12.2014 22:25 -0,6 C 89 % 1000,4 hPa 0,0 l/m 4,5 km/h (1 Bft) SW 225 -2,2 C -2,3 C 3,1 km/h (1 Bft)
27.12.2014 22:30 -0,6 C 89 % 1000,4 hPa 0,0 l/m 4,2 km/h (1 Bft) W-SW 247 -2,2 C -2,3 C 4,0 km/h (1 Bft)
27.12.2014 22:35 -0,6 C 88 % 1000,4 hPa 0,0 l/m 4,7 km/h (1 Bft) W-SW 247 -2,3 C -2,6 C 5,3 km/h (1 Bft)
27.12.2014 22:40 -0,6 C 88 % 1000,4 hPa 0,0 l/m 5,1 km/h (1 Bft) W-SW 247 -2,3 C -2,7 C 3,9 km/h (1 Bft)
27.12.2014 22:45 -0,7 C 89 % 1000,4 hPa 0,0 l/m 4,7 km/h (1 Bft) W-SW 247 -2,3 C -2,6 C 3,4 km/h (1 Bft)
27.12.2014 22:50 -0,8 C 89 % 1000,4 hPa 0,0 l/m 3,5 km/h (1 Bft) W-SW 247 -2,4 C -1,9 C 5,5 km/h (1 Bft)
27.12.2014 22:55 -0,8 C 89 % 1000,4 hPa 0,0 l/m 2,3 km/h (1 Bft) SW 225 -2,4 C -1,1 C 0,0 km/h (0 Bft)
27.12.2014 23:00 -0,8 C 89 % 1000,4 hPa 0,0 l/m 2,3 km/h (1 Bft) SW 225 -2,4 C -1,1 C 0,0 km/h (0 Bft)
27.12.2014 23:05 -1,0 C 89 % 1000,4 hPa 0,0 l/m 1,3 km/h (1 Bft) S-SO 157 -2,6 C -1,2 C 0,0 km/h (0 Bft)
27.12.2014 23:10 -1,1 C 90 % 1000,4 hPa 0,0 l/m 0,2 km/h (0 Bft) SW 225 -2,5 C -1,4 C 1,9 km/h (1 Bft)
27.12.2014 23:15 -1,0 C 90 % 1000,4 hPa 0,0 l/m 0,8 km/h (0 Bft) S 180 -2,4 C -1,4 C 0,0 km/h (0 Bft)
27.12.2014 23:20 -1,3 C 91 % 1000,6 hPa 0,0 l/m 0,8 km/h (0 Bft) S 180 -2,6 C -1,5 C 0,0 km/h (0 Bft)
27.12.2014 23:25 -1,4 C 91 % 1000,6 hPa 0,0 l/m 0,6 km/h (0 Bft) S 180 -2,7 C -1,7 C 0,0 km/h (0 Bft)
27.12.2014 23:30 -1,4 C 91 % 1000,6 hPa 0,0 l/m 1,1 km/h (1 Bft) S-SO 157 -2,7 C -1,8 C 1,9 km/h (1 Bft)
27.12.2014 23:35 -1,4 C 91 % 1000,6 hPa 0,0 l/m 1,1 km/h (1 Bft) S-SO 157 -2,7 C -1,8 C 1,8 km/h (1 Bft)
27.12.2014 23:40 -1,7 C 91 % 1000,3 hPa 0,0 l/m 1,1 km/h (1 Bft) S-SO 157 -3,0 C -1,9 C 0,0 km/h (0 Bft)
27.12.2014 23:45 -1,9 C 91 % 1000,3 hPa 0,0 l/m 0,6 km/h (0 Bft) S-SO 157 -3,2 C -2,1 C 0,0 km/h (0 Bft)
27.12.2014 23:50 -1,9 C 92 % 1000,3 hPa 0,0 l/m 0,5 km/h (0 Bft) S-SW 202 -3,0 C -2,3 C 3,4 km/h (1 Bft)
27.12.2014 23:55 -1,5 C 92 % 1000,3 hPa 0,0 l/m 1,1 km/h (1 Bft) S-SW 202 -2,6 C -2,2 C 2,6 km/h (1 Bft)
_ Min-Zeit 02:50 03:15 16:55 - 09:50 - - 02:50 03:05 23:45
Minimum _ -9,4 C 87 % 999,4 hPa - 0,0 km/h (0 Bft) - - -11,2 C -9,9 C 0,0 km/h (0 Bft)
_ Max-Zeit 15:15 14:25 00:15 23:55 18:15 - - 15:05 15:05 17:50
Maximum _ 1,6 C 94 % 1021,4 hPa 0,0 l/m 10,3 km/h
W-SW (2 Bft)
- - 0,5 C 1,4 C 20,9 km/h
W-SW (4 Bft)
Durchschnitt _ -3,2 C 91 % 1006,1 hPa #0,0 l/m 2,2 km/h (1 Bft) W-SW - -4,5 C -4,4 C 2,9 km/h (1 Bft)